Three Rivers, MI

3:59 AM EST on February 13, 2016 (GMT -0500)
Three Rivers Municipal-Haines

Weather History for KHAI - May, 2015

Change the Weather History Date:

Tuesday, May 12, 2015

  Actual Average (KAZO) Record (KAZO)
Temperature  
Mean Temperature 52 °F 58 °F  
Max Temperature 57 °F 69 °F 87 °F (2011)
Min Temperature 48 °F 47 °F 32 °F (1976)
Degree Days  
Heating Degree Days 12 8  
Month to date heating degree days 113  
Since 1 July heating degree days 6256  
Cooling Degree Days 0 1  
Month to date cooling degree days 6  
Year to date cooling degree days 10  
Growing Degree Days 2 (Base 50)    
Moisture  
Dew Point 41 °F    
Average Humidity 68    
Maximum Humidity 74    
Minimum Humidity 62    
Precipitation  
Precipitation 0.00 in 0.13 in 2.17 in (1966)
Month to date precipitation 1.48  
Year to date precipitation 10.05  
Sea Level Pressure  
Sea Level Pressure 30.06 in    
Wind  
Wind Speed 12 mph (West)    
Max Wind Speed 21 mph    
Max Gust Speed 29 mph    
Visibility 10 miles    
Events Rain    
T = Trace of Precipitation, MM = Missing Value Source: NWS Daily Summary

Daily Weather History Graph

Daily Weather History Graph

Search for Another Location

Airport or City:

Trip Planner

Search our weather history database for the weather conditions in past years. The results will help you decide how hot, cold, wet, or windy it might be!

Date:

Astronomy

May. 12, 2015 Rise Set
Actual Time 6:25 AM EDT 8:52 PM EDT
Civil Twilight 5:53 AM EDT 9:24 PM EDT
Nautical Twilight 5:14 AM EDT 10:03 PM EDT
Astronomical Twilight 4:30 AM EDT 10:47 PM EDT
Moon 3:05 AM EDT (5/12) 2:40 PM EDT (5/12)
Length of Visible Light 15h 30m
Length of Day
14h 27m
Last Quarter, 36% of the Moon is Illuminated
May 12
Last Quarter
May 18
New
May 25
First Quarter
Jun 2
Full
Jun 9
Last Quarter

Hourly Weather History & Observations

Time (EDT) Temp. Dew Point Humidity Pressure Visibility Wind Dir Wind Speed Gust Speed Precip Events Conditions
12:14 AM 57.4 °F 47.7 °F 70% 29.90 in 10.0 mi WNW 19.6 mph 28.8 mph N/A   Mostly Cloudy
12:35 AM 54.7 °F 45.9 °F 72% 29.90 in 10.0 mi WNW 13.8 mph 25.3 mph N/A   Mostly Cloudy
12:55 AM 53.6 °F 45.1 °F 73% 29.92 in 10.0 mi West 11.5 mph - N/A   Mostly Cloudy
1:14 AM 52.9 °F 44.6 °F 73% 29.92 in 10.0 mi West 9.2 mph 18.4 mph N/A   Overcast
1:35 AM 52.9 °F 43.3 °F 70% 29.92 in 10.0 mi West 10.4 mph 17.3 mph N/A   Mostly Cloudy
1:55 AM 53.2 °F 42.8 °F 68% 29.92 in 10.0 mi West 9.2 mph - N/A   Overcast
2:14 AM 53.2 °F 42.6 °F 67% 29.92 in 10.0 mi West 6.9 mph - N/A   Overcast
2:17 AM 53.1 °F 42.6 °F 68% 29.92 in 10.0 mi WSW 9.2 mph - N/A   Overcast
3:10 AM 51.8 °F 41.0 °F 67% 29.92 in 10.0 mi WSW 5.8 mph - N/A   Scattered Clouds
3:27 AM 50.0 °F 41.0 °F 71% 29.91 in 10.0 mi WSW 5.8 mph - N/A   Scattered Clouds
3:46 AM 51.8 °F 41.0 °F 67% 29.92 in 10.0 mi WSW 4.6 mph - N/A   Mostly Cloudy
4:09 AM 51.8 °F 41.0 °F 67% 29.92 in 10.0 mi WSW 6.9 mph - N/A   Overcast
4:25 AM 51.8 °F 41.0 °F 67% 29.92 in 10.0 mi West 11.5 mph 20.7 mph N/A   Overcast
6:47 AM 51.4 °F 40.1 °F 65% 29.92 in 10.0 mi WSW 9.2 mph - N/A   Overcast
6:55 AM 51.3 °F 39.9 °F 65% 29.93 in 10.0 mi WSW 11.5 mph 16.1 mph N/A   Overcast
7:15 AM 51.1 °F 40.1 °F 66% 29.94 in 10.0 mi West 11.5 mph 16.1 mph N/A   Overcast
7:34 AM 50.0 °F 41.2 °F 72% 29.95 in 10.0 mi WNW 12.7 mph 21.9 mph N/A   Overcast
7:55 AM 49.8 °F 40.6 °F 71% 29.96 in 10.0 mi West 12.7 mph 26.5 mph N/A   Overcast
8:15 AM 49.8 °F 39.4 °F 67% 29.96 in 10.0 mi West 12.7 mph 20.7 mph N/A   Overcast
8:34 AM 49.8 °F 38.5 °F 65% 29.96 in 10.0 mi West 12.7 mph 23.0 mph N/A   Overcast
8:55 AM 49.3 °F 39.4 °F 69% 29.97 in 10.0 mi West 17.3 mph 20.7 mph N/A   Overcast
9:15 AM 49.1 °F 39.0 °F 68% 29.97 in 10.0 mi West 12.7 mph 21.9 mph N/A   Overcast
9:34 AM 48.6 °F 38.8 °F 69% 29.98 in 10.0 mi West 15.0 mph 21.9 mph N/A   Overcast
9:55 AM 48.6 °F 39.0 °F 70% 29.98 in 10.0 mi West 11.5 mph 20.7 mph N/A   Overcast
10:15 AM 50.0 °F 39.0 °F 66% 29.99 in 10.0 mi West 9.2 mph 20.7 mph N/A   Overcast
10:34 AM 50.5 °F 38.7 °F 64% 29.99 in 10.0 mi West 13.8 mph 25.3 mph N/A   Overcast
10:55 AM 50.9 °F 38.5 °F 62% 29.99 in 10.0 mi West 16.1 mph 27.6 mph N/A   Overcast
11:15 AM 51.1 °F 39.2 °F 64% 30.01 in 10.0 mi West 18.4 mph 23.0 mph N/A   Overcast
11:35 AM 51.1 °F 38.5 °F 62% 30.02 in 10.0 mi West 15.0 mph 24.2 mph N/A   Overcast
11:55 AM 51.3 °F 39.0 °F 63% 30.02 in 10.0 mi West 16.1 mph 25.3 mph N/A   Overcast
12:15 PM 52.0 °F 39.7 °F 63% 30.03 in 10.0 mi West 12.7 mph 24.2 mph N/A   Overcast
12:35 PM 52.3 °F 39.9 °F 63% 30.04 in 10.0 mi WSW 12.7 mph 23.0 mph N/A   Overcast
12:55 PM 52.5 °F 39.7 °F 62% 30.04 in 10.0 mi West 20.7 mph 26.5 mph N/A   Overcast
1:14 PM 51.8 °F 40.3 °F 65% 30.05 in 10.0 mi West 15.0 mph 28.8 mph N/A   Overcast
1:35 PM 50.9 °F 39.4 °F 65% 30.06 in 10.0 mi West 20.7 mph 26.5 mph N/A   Overcast
1:55 PM 50.9 °F 39.7 °F 66% 30.07 in 10.0 mi West 17.3 mph 25.3 mph N/A   Overcast
2:14 PM 50.9 °F 38.5 °F 62% 30.07 in 10.0 mi West 15.0 mph 26.5 mph N/A   Overcast
2:35 PM 50.5 °F 38.8 °F 64% 30.09 in 10.0 mi West 17.3 mph 24.2 mph N/A   Overcast
2:55 PM 50.5 °F 38.8 °F 64% 30.10 in 10.0 mi West 12.7 mph 23.0 mph N/A   Overcast
3:14 PM 50.2 °F 39.2 °F 66% 30.10 in 10.0 mi West 12.7 mph - N/A   Overcast
3:35 PM 50.4 °F 39.4 °F 66% 30.11 in 10.0 mi West 16.1 mph 20.7 mph N/A   Overcast
3:54 PM 50.7 °F 39.9 °F 67% 30.11 in 10.0 mi West 15.0 mph 20.7 mph N/A   Overcast
4:15 PM 50.4 °F 40.5 °F 69% 30.12 in 10.0 mi West 12.7 mph 20.7 mph N/A   Overcast
4:35 PM 50.5 °F 40.3 °F 68% 30.12 in 10.0 mi West 13.8 mph 19.6 mph N/A   Overcast
4:54 PM 50.9 °F 40.8 °F 68% 30.12 in 10.0 mi West 16.1 mph 27.6 mph N/A   Overcast
5:15 PM 50.5 °F 40.8 °F 69% 30.12 in 10.0 mi WNW 17.3 mph 24.2 mph N/A   Overcast
5:35 PM 50.9 °F 41.4 °F 70% 30.13 in 10.0 mi West 12.7 mph - N/A   Overcast
5:54 PM 50.5 °F 41.0 °F 70% 30.14 in 10.0 mi West 13.8 mph - N/A   Overcast
6:15 PM 50.5 °F 41.4 °F 71% 30.13 in 10.0 mi West 11.5 mph - N/A   Overcast
6:35 PM 50.7 °F 41.2 °F 70% 30.15 in 10.0 mi West 10.4 mph 19.6 mph N/A   Overcast
6:54 PM 50.5 °F 41.4 °F 71% 30.15 in 10.0 mi West 10.4 mph 19.6 mph N/A   Overcast
7:15 PM 50.4 °F 41.4 °F 71% 30.16 in 10.0 mi WNW 15.0 mph 19.6 mph N/A   Overcast
7:35 PM 50.0 °F 41.9 °F 74% 30.17 in 10.0 mi WNW 9.2 mph - N/A Rain Light Rain
7:55 PM 50.2 °F 41.4 °F 72% 30.17 in 10.0 mi WNW 11.5 mph - N/A   Overcast
8:15 PM 50.0 °F 41.0 °F 71% 30.18 in 10.0 mi WNW 11.5 mph 17.3 mph N/A   Overcast
8:34 PM 50.0 °F 41.0 °F 71% 30.18 in 10.0 mi NW 8.1 mph - N/A   Overcast
8:55 PM 49.5 °F 41.0 °F 73% 30.19 in 10.0 mi NW 8.1 mph - N/A   Overcast
9:15 PM 49.3 °F 41.2 °F 74% 30.21 in 10.0 mi NW 8.1 mph - N/A   Overcast
9:35 PM 49.3 °F 41.0 °F 73% 30.22 in 10.0 mi WNW 5.8 mph - N/A   Overcast
9:55 PM 49.1 °F 41.0 °F 74% 30.23 in 10.0 mi WNW 8.1 mph - N/A   Overcast
10:14 PM 49.1 °F 40.5 °F 72% 30.24 in 10.0 mi WNW 9.2 mph - N/A   Overcast
10:35 PM 48.7 °F 39.9 °F 72% 30.24 in 10.0 mi NW 8.1 mph - N/A   Overcast
10:55 PM 48.6 °F 39.0 °F 70% 30.25 in 10.0 mi NW 8.1 mph - N/A   Overcast
11:14 PM 48.6 °F 38.1 °F 67% 30.25 in 10.0 mi NW 5.8 mph - N/A   Overcast
11:35 PM 48.2 °F 37.9 °F 68% 30.25 in 10.0 mi WNW 6.9 mph - N/A   Overcast
11:55 PM 48.0 °F 38.1 °F 69% 30.25 in 10.0 mi WNW 9.2 mph - N/A   Overcast